CW5306 Weather Reports


Display with metric or nautical units.
time (UTC)temp
F
wind
direction
speed
MPH
gust
MPH
rain 1hr
in
rain 24hr
in
rain mn
in
humidity
%
barometer
mb
20260831024059 80 79 4.0 17.0 0.00 0.00 0.00 78 1016.1
20260831023600 80 136 9.0 17.0 0.00 0.00 0.00 77 1016.0
20260831023059 80 54 5.0 14.0 0.00 0.00 0.00 77 1016.0
20260831022836 80 102 5.0 15.0 0.00 0.00 0.00 76 1016.2
20260831022559 80 90 6.0 14.0 0.00 0.00 0.00 76 1016.1
20260831021559 80 146 9.0 17.0 0.00 0.00 0.00 75 1016.1
20260831021058 80 139 5.0 24.0 0.00 0.00 0.00 74 1016.1
20260831020559 80 79 9.0 24.0 0.00 0.00 0.00 76 1016.5
20260831020059 80 115 10.0 21.0 0.00 0.00 0.00 76 1016.1
20260831015601 80 79 9.0 14.0 0.00 0.00 0.00 77 1016.2
20260831015046 80 62 7.0 15.0 0.00 0.00 0.00 76 1016.1
20260831014545 79 83 5.0 23.0 0.00 0.00 0.00 77 1016.3
20260831014045 80 90 7.0 23.0 0.00 0.00 0.00 77 1016.2
20260831013816 81 81 11.0 23.0 0.00 0.00 0.00 74 1016.1
20260831013046 82 49 10.0 17.0 0.00 0.00 0.00 75 1016.1
20260831012546 82 62 8.0 20.0 0.00 0.00 0.00 72 1016.1
20260831012046 83 105 11.0 25.0 0.00 0.00 0.00 73 1016.0
20260831011804 82 115 11.0 25.0 0.00 0.00 0.00 73 1016.3
20260831011033 82 107 6.0 17.0 0.00 0.00 0.00 73 1016.6
20260831010534 82 91 9.0 17.0 0.00 0.00 0.00 72 1016.4
20260831010034 83 88 10.0 20.0 0.00 0.00 0.00 71 1016.7
20260831005805 83 105 13.0 20.0 0.00 0.00 0.00 71 1016.4
20260831005035 83 62 6.0 16.0 0.00 0.00 0.00 71 1016.5
20260831004534 83 91 8.0 16.0 0.00 0.00 0.00 70 1016.5
20260831004252 83 73 6.0 16.0 0.00 0.00 0.00 71 1016.3
20260831003522 83 26 4.0 17.0 0.00 0.00 0.00 73 1016.4
20260831003022 82 103 9.0 20.0 0.00 0.00 0.00 72 1016.9
20260831002521 82 66 8.0 20.0 0.00 0.00 0.00 73 1016.6
20260831002022 82 82 7.0 17.0 0.00 0.00 0.00 73 1016.9
20260831001522 82 76 9.0 19.0 0.00 0.00 0.00 73 1016.9
20260831001022 82 113 8.0 19.0 0.00 0.00 0.00 74 1017.1
20260831000509 82 82 8.0 17.0 0.00 0.00 0.00 74 1017.1
20260831000009 82 76 8.0 19.0 0.00 0.00 0.00 74 1016.9
20260830235509 82 157 5.0 19.0 0.00 0.00 0.00 74 1017.2
20260830235009 82 115 11.0 19.0 0.00 0.00 0.00 73 1017.1
20260830234509 83 73 11.0 19.0 0.00 0.00 0.00 73 1017.0
20260830234010 82 101 11.0 19.0 0.00 0.00 0.00 73 1017.2
20260830233509 82 134 6.0 19.0 0.00 0.00 0.00 73 1017.3
20260830233010 82 79 13.0 17.0 0.00 0.00 0.00 75 1017.2
20260830232740 82 64 11.0 17.0 0.00 0.00 0.00 73 1017.4
20260830232242 82 79 7.0 19.0 0.00 0.00 0.00 76 1017.4
20260830231509 82 102 11.0 20.0 0.00 0.00 0.00 75 1017.6
20260830231241 82 116 9.0 19.0 0.00 0.00 0.00 74 1017.5
20260830230510 82 97 9.0 21.0 0.00 0.00 0.00 74 1017.5
20260830230010 82 102 9.0 21.0 0.00 0.00 0.00 74 1017.7
20260830225510 82 102 9.0 17.0 0.00 0.00 0.00 75 1017.7
20260830225010 82 106 9.0 21.0 0.00 0.00 0.00 76 1017.8
20260830224510 82 76 5.0 21.0 0.00 0.00 0.00 76 1017.9
20260830224005 83 121 11.0 19.0 0.00 0.00 0.00 76 1017.8
20260830223456 83 103 7.0 14.0 0.00 0.00 0.00 75 1018.1
20260830222956 82 61 8.0 20.0 0.00 0.00 0.00 77 1018.0
20260830222504 82 96 10.0 21.0 0.00 0.00 0.00 76 1018.1
20260830222457 82 104 13.0 21.0 0.00 0.00 0.00 75 1018.1
20260830221459 81 54 11.0 21.0 0.00 0.00 0.00 75 1018.3
20260830220957 82 82 8.0 21.0 0.00 0.00 0.00 74 1018.4
20260830220450 82 69 9.0 23.0 0.00 0.00 0.00 74 1018.2
20260830215945 82 65 12.0 23.0 0.00 0.00 0.00 75 1018.2
20260830215445 82 94 7.0 19.0 0.00 0.00 0.00 74 1017.9
20260830214945 81 40 6.0 19.0 0.00 0.00 0.00 78 1018.3
20260830214445 81 60 14.0 24.0 0.00 0.00 0.00 80 1018.3
20260830213944 80 55 7.0 24.0 0.00 0.00 0.00 81 1018.2
20260830213445 79 41 11.0 24.0 0.00 0.00 0.00 81 1018.3
20260830212945 80 60 15.0 28.0 0.00 0.00 0.00 81 1018.4
20260830212433 80 88 14.0 24.0 0.00 0.00 0.00 80 1018.5
20260830211935 81 69 13.0 17.0 0.00 0.00 0.00 76 1018.1
20260830211705 82 88 9.0 20.0 0.00 0.00 0.00 76 1018.4
20260830210932 82 108 13.0 20.0 0.00 0.00 0.00 74 1018.4
20260830210432 82 62 10.0 19.0 0.00 0.00 0.00 73 1018.2
20260830205931 82 66 10.0 19.0 0.00 0.00 0.00 75 1018.5
20260830205431 82 113 12.0 19.0 0.00 0.00 0.00 75 1018.4
20260830204932 82 68 13.0 20.0 0.00 0.00 0.00 75 1018.3
20260830204432 82 116 10.0 20.0 0.00 0.00 0.00 74 1018.5
20260830203931 81 133 8.0 19.0 0.00 0.00 0.00 72 1018.3
20260830203433 81 121 8.0 16.0 0.00 0.00 0.00 74 1018.1
20260830203201 81 116 9.0 16.0 0.00 0.00 0.00 74 1018.3
20260830202430 81 65 8.0 16.0 0.00 0.00 0.00 74 1018.2
20260830201932 80 70 9.0 16.0 0.00 0.00 0.00 75 1018.4
20260830201431 80 78 8.0 15.0 0.00 0.00 0.00 74 1018.3
20260830200931 79 120 4.0 16.0 0.00 0.00 0.00 73 1018.1
20260830200432 79 90 8.0 17.0 0.00 0.00 0.00 73 1018.7
20260830195936 77 105 9.0 16.0 0.00 0.00 0.00 76 1018.5
20260830195931 78 93 5.0 17.0 0.00 0.00 0.00 75 1018.4
20260830194930 77 75 3.0 26.0 0.00 0.00 0.00 78 1018.4
20260830194431 77 71 10.0 26.0 0.00 0.00 0.00 79 1018.7
20260830193931 78 68 16.0 23.0 0.00 0.00 0.00 77 1018.5
20260830193431 78 153 10.0 29.0 0.00 0.00 0.00 79 1018.2
20260830192930 78 103 14.0 34.0 0.00 0.00 0.00 78 1018.4
20260830192430 78 81 11.0 34.0 0.00 0.00 0.00 78 1018.3
20260830192201 80 94 10.0 26.0 0.00 0.00 0.00 78 1018.2
20260830191431 80 85 17.0 26.0 0.00 0.00 0.00 78 1018.1
20260830190931 80 92 12.0 20.0 0.00 0.00 0.00 73 1018.1
20260830190419 81 81 11.0 20.0 0.00 0.00 0.00 74 1018.0
20260830185907 80 87 9.0 20.0 0.00 0.00 0.00 75 1017.8
20260830185408 80 67 11.0 21.0 0.00 0.00 0.00 75 1017.7
20260830184907 80 100 11.0 21.0 0.00 0.00 0.00 74 1017.9
20260830184407 80 72 8.0 19.0 0.00 0.00 0.00 75 1018.1
20260830183907 79 69 8.0 19.0 0.00 0.00 0.00 75 1018.0
20260830183407 79 88 9.0 19.0 0.00 0.00 0.00 74 1017.7
20260830183138 80 99 11.0 20.0 0.00 0.00 0.00 74 1017.8
20260830182406 80 46 8.0 20.0 0.00 0.00 0.00 76 1017.6
20260830181906 80 77 9.0 20.0 0.00 0.00 0.00 76 1017.7
20260830181640 79 165 11.0 20.0 0.00 0.00 0.00 76 1018.0
20260830180906 80 97 9.0 21.0 0.00 0.00 0.00 76 1017.7
20260830180638 80 80 7.0 21.0 0.00 0.00 0.00 75 1017.6
20260830175907 80 74 11.0 20.0 0.00 0.00 0.00 75 1017.8
20260830175407 80 89 13.0 20.0 0.00 0.00 0.00 75 1017.5
20260830175140 80 81 11.0 20.0 0.00 0.00 0.00 74 1017.6
20260830174406 80 80 6.0 20.0 0.00 0.00 0.00 75 1017.5
20260830173907 79 63 6.0 17.0 0.00 0.00 0.00 76 1017.6
20260830173408 79 52 11.0 19.0 0.00 0.00 0.00 76 1017.4
20260830173138 79 43 8.0 19.0 0.00 0.00 0.00 76 1017.6
20260830172406 79 69 9.0 19.0 0.00 0.00 0.00 77 1017.4
20260830171906 79 74 8.0 21.0 0.00 0.00 0.00 76 1017.3
20260830171407 79 57 7.0 21.0 0.00 0.00 0.00 76 1017.5
20260830170908 78 100 8.0 20.0 0.00 0.00 0.00 76 1017.5
20260830170407 78 72 7.0 21.0 0.00 0.00 0.00 76 1017.1
20260830165907 78 84 11.0 21.0 0.00 0.00 0.00 77 1017.5
20260830165407 78 87 9.0 17.0 0.00 0.00 0.00 77 1017.1
20260830165138 78 91 11.0 20.0 0.00 0.00 0.00 77 1017.1
20260830164645 78 67 11.0 21.0 0.00 0.00 0.00 76 1017.1
20260830164406 78 94 13.0 21.0 0.00 0.00 0.00 76 1017.2
20260830163406 78 32 7.0 19.0 0.00 0.00 0.00 77 1017.1
20260830162906 77 79 9.0 19.0 0.00 0.00 0.00 77 1017.1
20260830162406 78 126 9.0 20.0 0.00 0.00 0.00 77 1017.0
20260830161906 78 37 9.0 20.0 0.00 0.00 0.00 78 1016.9
20260830161406 77 93 5.0 17.0 0.00 0.00 0.00 78 1016.9
20260830160907 78 107 5.0 16.0 0.00 0.00 0.00 78 1016.9
20260830160406 78 98 7.0 19.0 0.00 0.00 0.00 79 1016.8
20260830155912 77 103 10.0 19.0 0.00 0.00 0.00 78 1016.8
20260830155906 77 86 10.0 19.0 0.00 0.00 0.00 77 1016.9
20260830154906 78 72 7.0 20.0 0.00 0.00 0.00 79 1016.6
20260830154407 77 101 9.0 23.0 0.00 0.00 0.00 78 1016.9
20260830153906 77 64 13.0 23.0 0.00 0.00 0.00 78 1016.6
20260830153406 77 92 10.0 19.0 0.00 0.00 0.00 78 1016.5
20260830152906 77 76 7.0 16.0 0.00 0.00 0.00 79 1016.6
20260830152407 77 95 8.0 20.0 0.00 0.00 0.00 78 1016.6
20260830151907 77 129 7.0 20.0 0.00 0.00 0.00 78 1016.7
20260830151406 78 87 7.0 23.0 0.00 0.00 0.00 79 1016.7
20260830150907 77 66 18.0 23.0 0.00 0.00 0.00 77 1016.6
20260830150407 77 73 10.0 20.0 0.00 0.00 0.00 77 1016.6
20260830145907 78 100 7.0 19.0 0.00 0.00 0.00 78 1016.3
20260830145407 78 76 11.0 19.0 0.00 0.00 0.00 78 1016.2
20260830145139 77 73 12.0 19.0 0.00 0.00 0.00 78 1016.1
20260830144407 77 108 9.0 19.0 0.00 0.00 0.00 78 1016.2
20260830144138 77 104 11.0 17.0 0.00 0.00 0.00 79 1016.2
20260830143407 77 116 7.0 21.0 0.00 0.00 0.00 78 1016.4
20260830142909 77 103 8.0 21.0 0.00 0.00 0.00 79 1016.1
20260830142407 77 57 10.0 23.0 0.00 0.00 0.00 79 1016.3
20260830141912 77 87 9.0 25.0 0.00 0.01 0.00 79 1016.2
20260830141907 77 109 6.0 23.0 0.00 0.01 0.00 79 1016.1
20260830140906 77 90 15.0 24.0 0.00 0.01 0.00 79 1016.0
20260830140406 77 72 13.0 21.0 0.00 0.01 0.00 79 1016.1
20260830135908 77 96 14.0 19.0 0.00 0.01 0.00 80 1015.9
20260830135637 77 87 11.0 23.0 0.00 0.01 0.00 80 1016.0
20260830134907 77 75 13.0 23.0 0.00 0.01 0.00 79 1016.1
20260830134407 77 95 12.0 20.0 0.00 0.01 0.00 78 1016.2
20260830134138 77 99 15.0 20.0 0.00 0.01 0.00 79 1016.0
20260830133407 77 84 11.0 21.0 0.00 0.01 0.00 79 1015.9
20260830132906 77 70 11.0 21.0 0.00 0.01 0.00 79 1015.9
20260830132406 78 99 9.0 23.0 0.00 0.01 0.00 79 1015.8
20260830131906 78 81 11.0 23.0 0.00 0.01 0.00 79 1015.9
20260830131406 78 47 6.0 21.0 0.00 0.01 0.00 78 1016.1
20260830131143 78 87 8.0 21.0 0.00 0.01 0.00 78 1016.1
20260830130906 78 103 8.0 21.0 0.00 0.01 0.00 78 1015.9
20260830125906 78 72 11.0 21.0 0.00 0.01 0.00 78 1016.0
20260830125406 78 89 7.0 21.0 0.00 0.01 0.00 78 1016.0
20260830124906 78 148 11.0 21.0 0.00 0.01 0.00 77 1016.1
20260830124407 77 99 9.0 21.0 0.00 0.01 0.00 77 1016.1
20260830124138 78 90 11.0 21.0 0.00 0.01 0.00 79 1016.0
20260830124012 78 121 9.0 21.0 0.00 0.01 0.00 78 1016.1
20260830122907 78 112 12.0 23.0 0.00 0.01 0.00 78 1016.2
20260830122406 78 57 12.0 23.0 0.00 0.01 0.00 78 1016.1
20260830121906 77 48 6.0 20.0 0.00 0.01 0.00 77 1016.2
20260830121407 78 67 8.0 21.0 0.00 0.01 0.00 78 1016.4
20260830120907 78 92 7.0 21.0 0.00 0.01 0.00 78 1016.4
20260830120639 78 89 10.0 19.0 0.00 0.01 0.00 77 1016.4
20260830115907 78 22 6.0 20.0 0.00 0.01 0.00 76 1016.4
20260830115407 78 70 12.0 20.0 0.00 0.01 0.00 78 1016.5
20260830114907 78 101 6.0 20.0 0.00 0.01 0.00 79 1016.6
20260830114407 78 76 4.0 20.0 0.00 0.01 0.00 77 1016.4
20260830113907 78 115 3.0 25.0 0.00 0.01 0.00 78 1016.7
20260830113406 78 82 8.0 25.0 0.00 0.01 0.00 79 1016.6
20260830112906 78 48 16.0 20.0 0.00 0.01 0.00 78 1016.8
20260830112406 78 78 7.0 17.0 0.00 0.01 0.00 78 1016.9
20260830111907 78 123 11.0 20.0 0.00 0.01 0.00 77 1016.8
20260830111406 78 67 9.0 26.0 0.00 0.01 0.00 78 1016.7
20260830111139 78 110 10.0 26.0 0.00 0.01 0.00 78 1016.8
20260830110408 78 73 5.0 24.0 0.00 0.01 0.00 78 1016.7
20260830105907 78 102 8.0 24.0 0.00 0.01 0.00 77 1016.9
20260830105407 78 56 13.0 21.0 0.00 0.01 0.00 78 1016.6
20260830105139 78 76 13.0 21.0 0.00 0.01 0.00 78 1017.1
20260830104407 78 81 11.0 19.0 0.00 0.01 0.00 79 1016.9
20260830103907 78 91 13.0 20.0 0.00 0.01 0.00 78 1017.0
20260830103407 78 100 6.0 21.0 0.00 0.01 0.00 78 1016.9
20260830102907 78 74 11.0 21.0 0.00 0.01 0.00 78 1017.2
20260830102637 78 95 8.0 21.0 0.00 0.01 0.00 79 1017.0
20260830101906 78 72 10.0 21.0 0.00 0.01 0.00 77 1017.2
20260830101406 78 67 6.0 21.0 0.00 0.01 0.00 77 1016.9
20260830100907 78 121 6.0 21.0 0.00 0.01 0.00 76 1017.0
20260830100407 78 38 7.0 24.0 0.00 0.01 0.00 76 1017.0
20260830100137 78 84 11.0 24.0 0.00 0.01 0.01 75 1016.9
20260830095638 78 110 12.0 23.0 0.00 0.01 0.01 77 1016.8
20260830094906 78 127 7.0 23.0 0.00 0.01 0.01 76 1017.0
20260830094407 78 94 9.0 24.0 0.00 0.01 0.01 78 1017.0
20260830093906 78 105 8.0 24.0 0.00 0.01 0.01 78 1017.0
20260830093407 78 72 7.0 23.0 0.00 0.01 0.01 77 1017.0
20260830092907 78 78 15.0 23.0 0.00 0.01 0.01 78 1016.8
20260830092407 78 78 15.0 29.0 0.00 0.01 0.01 77 1017.2
20260830092136 78 64 13.0 29.0 0.00 0.01 0.01 78 1017.3
20260830091405 78 81 11.0 23.0 0.00 0.01 0.01 77 1017.4
20260830090904 78 113 11.0 23.0 0.00 0.01 0.01 78 1017.5
20260830090636 78 77 10.0 26.0 0.00 0.01 0.01 78 1017.8
20260830085904 78 94 9.0 26.0 0.00 0.01 0.01 78 1017.8
20260830085404 78 84 17.0 25.0 0.00 0.01 0.01 79 1017.9
20260830085135 78 84 15.0 23.0 0.00 0.01 0.01 79 1017.8
20260830084403 78 94 9.0 20.0 0.00 0.01 0.01 80 1017.7
20260830084134 78 67 8.0 20.0 0.00 0.01 0.01 79 1017.9
20260830083404 78 80 8.0 24.0 0.00 0.01 0.01 79 1018.0
20260830082903 78 78 11.0 24.0 0.00 0.01 0.01 78 1017.8
20260830082636 78 72 5.0 23.0 0.00 0.01 0.01 78 1017.7
20260830081904 78 69 13.0 24.0 0.00 0.01 0.01 79 1018.1
20260830081404 78 78 11.0 24.0 0.00 0.01 0.01 78 1017.9
20260830080903 78 111 15.0 21.0 0.00 0.01 0.01 77 1017.8
20260830080403 78 77 10.0 21.0 0.00 0.01 0.01 77 1017.6
20260830075903 78 107 13.0 19.0 0.00 0.01 0.01 78 1017.7
20260830075403 78 96 6.0 19.0 0.00 0.01 0.01 79 1017.4
20260830075135 78 79 8.0 19.0 0.00 0.01 0.01 79 1017.3
20260830074404 78 84 12.0 19.0 0.00 0.01 0.01 79 1017.5
20260830073904 78 98 0.0 19.0 0.00 0.01 0.01 78 1017.3
20260830073409 78 109 3.0 21.0 0.00 0.01 0.01 77 1017.2
20260830073403 78 116 8.0 21.0 0.00 0.01 0.01 78 1017.1
20260830072402 78 73 4.0 23.0 0.00 0.01 0.01 77 1017.1
20260830071905 78 88 11.0 23.0 0.00 0.01 0.01 77 1016.8
20260830071634 78 70 13.0 29.0 0.00 0.01 0.01 79 1016.9
20260830070902 78 61 9.0 29.0 0.00 0.01 0.01 79 1017.1
20260830070404 78 79 13.0 25.0 0.00 0.01 0.01 80 1016.9
20260830065903 78 67 11.0 25.0 0.00 0.01 0.01 80 1017.0
20260830065402 78 109 8.0 23.0 0.00 0.01 0.01 81 1016.8
20260830064902 78 53 13.0 23.0 0.00 0.01 0.01 81 1016.9
20260830064634 78 110 13.0 24.0 0.00 0.01 0.01 81 1016.9
20260830063902 78 71 6.0 24.0 0.00 0.01 0.01 80 1016.8
20260830063402 78 102 6.0 23.0 0.00 0.01 0.01 80 1016.9
20260830062901 78 87 9.0 21.0 0.00 0.01 0.01 79 1017.0
20260830062401 78 100 13.0 21.0 0.00 0.01 0.01 81 1016.9
20260830061902 78 91 10.0 26.0 0.00 0.01 0.01 82 1016.4
20260830061401 78 71 13.0 26.0 0.00 0.01 0.01 82 1016.5
20260830060907 78 108 14.0 20.0 0.00 0.01 0.01 81 1016.4
20260830060901 78 114 6.0 23.0 0.00 0.01 0.01 81 1016.4
20260830055902 78 72 10.0 20.0 0.00 0.01 0.01 81 1016.0
20260830055632 78 72 14.0 23.0 0.00 0.01 0.01 81 1016.2
20260830054900 78 80 10.0 23.0 0.00 0.01 0.01 80 1016.1
20260830054400 78 104 11.0 21.0 0.00 0.01 0.01 81 1016.1
20260830053901 78 119 6.0 21.0 0.00 0.01 0.01 81 1016.0
20260830053401 78 117 8.0 23.0 0.00 0.01 0.01 81 1016.3
20260830052901 78 111 13.0 25.0 0.00 0.01 0.01 81 1016.1
20260830052401 78 141 11.0 25.0 0.00 0.01 0.01 82 1016.0
20260830051859 78 72 10.0 21.0 0.00 0.01 0.01 83 1015.9
20260830051359 78 71 13.0 25.0 0.00 0.01 0.01 84 1015.7
20260830050859 77 51 11.0 26.0 0.00 0.01 0.01 83 1016.1
20260830050632 78 66 8.0 26.0 0.00 0.01 0.01 84 1015.5
20260830050131 78 120 11.0 24.0 0.00 0.01 0.01 83 1015.6
20260830045359 78 95 11.0 23.0 0.00 0.01 0.01 82 1015.9
20260830044859 78 79 13.0 23.0 0.00 0.01 0.01 81 1015.7
20260830044631 78 134 14.0 21.0 0.00 0.01 0.01 81 1015.8
20260830043859 78 60 6.0 20.0 0.00 0.01 0.01 81 1015.7
20260830043359 78 112 10.0 28.0 0.00 0.01 0.01 81 1015.4
20260830042859 78 96 12.0 28.0 0.00 0.01 0.01 83 1015.5
20260830042630 78 97 12.0 24.0 0.00 0.01 0.01 84 1015.6
20260830041900 78 80 11.0 24.0 0.00 0.01 0.01 84 1015.5
20260830041631 78 53 16.0 21.0 0.00 0.01 0.01 86 1015.3
20260830040859 78 66 12.0 20.0 0.00 0.01 0.01 84 1015.4
20260830040359 78 58 9.0 15.0 0.00 0.01 0.01 82 1015.4
20260830035859 78 82 9.0 19.0 0.00 0.01 0.01 82 1015.3
20260830035629 78 122 11.0 19.0 0.00 0.01 0.01 81 1015.3
20260830034859 78 89 8.0 17.0 0.00 0.01 0.01 82 1015.4
20260830034630 78 94 8.0 19.0 0.00 0.01 0.01 81 1015.4
20260830033901 78 51 11.0 23.0 0.00 0.01 0.01 80 1015.7
20260830033358 78 68 12.0 25.0 0.00 0.01 0.01 80 1015.5
20260830032900 78 81 10.0 25.0 0.00 0.01 0.01 80 1015.6
20260830032359 79 42 8.0 23.0 0.00 0.01 0.01 80 1015.4
20260830031859 79 66 9.0 19.0 0.00 0.01 0.01 79 1015.5
20260830031359 79 89 11.0 19.0 0.00 0.01 0.01 80 1015.7
20260830030859 79 82 8.0 19.0 0.00 0.01 0.01 80 1015.3
20260830030359 79 42 8.0 17.0 0.00 0.01 0.01 81 1015.3
20260830025900 79 77 9.0 19.0 0.00 0.01 0.01 81 1015.4
20260830025400 79 53 9.0 20.0 0.00 0.01 0.01 81 1015.2
20260830024859 79 82 9.0 20.0 0.00 0.01 0.01 80 1015.3